Regional Weather Roundup
Issued by NWS

Home | Current Version | Previous Version | Graphics & Text | Print | Product List | Glossary On
Versions: 1 2 3 4 5 6 7 8 9 10 11 12 13 14 15 16 17 18 19 20 21 22 23 24 25 26 27 28 29 30 31 32 33 34 35 36 37 38 39 40 41 42 43 44 45 46 47 48 49 50
000
ASUS45 KSLC 270310
RWRUT

UTAH REGIONAL WEATHER ROUNDUP
NATIONAL WEATHER SERVICE SALT LAKE CITY UT
800 PM MST MON JAN 26 2015

UTZ001>011-023>025-270400-

NORTHERN UTAH

CITY           SKY/WX    TMP DP  RH WIND       PRES   REMARKS
BRIGHAM CITY   CLEAR     39  34  82 S6        30.24R
HILL AFB       CLEAR     37  32  82 SE2       30.24R
LOGAN          CLEAR     34  30  85 CALM      30.22R
OGDEN          CLEAR     37  33  85 SE3       30.23R
PROVO AIRPORT  CLEAR     36  30  80 NW8       30.23R WCI  29
SALT LAKE CITY PTCLDY    37  32  82 SE3       30.23F
VERNAL         PTCLDY    33  24  69 CALM      30.32S
WENDOVER       PTCLDY    36  28  75 CALM      30.22S
HEBER CITY     CLEAR     32  27  80 CALM      30.25S
WEST JORDAN    CLEAR     37  34  87 CALM      30.24S

$$

UTZ012>022-026-027-270400-

SOUTHERN/CENTRAL UTAH

CITY           SKY/WX    TMP DP  RH WIND       PRES   REMARKS
BLANDING       PTCLDY    39  26  58 N8        30.37F WCI  34
BRYCE CANYON   CLEAR     29  24  82 SW5       30.32R WCI  24
CEDAR CITY     PTCLDY    40  29  64 SE6       30.20S
DELTA          CLOUDY    40  34  79 CALM      30.21S
MILFORD        MOCLDY    38  31  76 E3        30.21R
MOAB/CYNLANDS  CLEAR     38  28  67 NE3       30.28R
PRICE          CLEAR     39  23  52 NW8       30.30R WCI  33
ST GEORGE      CLEAR     55  28  35 CALM      30.15S
KANAB          PTCLDY    45  25  45 N8        30.26F

$$

REGIONAL REPORTS     COLORADO/ARIZONA

CITY           SKY/WX    TMP DP  RH WIND       PRES   REMARKS
CRAIG, CO      PTCLDY    22  19  89 CALM      30.34S
GRAND JUNCTION CLEAR     41  27  57 N9        30.28R
RIFLE          PTCLDY    36  26  67 E5        30.30R WCI  32
MONTROSE       PTCLDY    34  23  64 S8        30.32R WCI  27
CORTEZ         CLEAR     35  24  64 NE3       30.33S
PAGE, AZ       NOT AVBL
GRAND CANYON   MOCLDY    34  22  61 CALM      30.29R
KINGMAN        LGT RAIN  52  33  48 S8        30.15R
FLAGSTAFF      CLOUDY    40  25  55 NE3       30.29F

$$

REGIONAL REPORTS    NEVADA/IDAHO/WYOMING

CITY           SKY/WX    TMP DP  RH WIND       PRES   REMARKS
LAS VEGAS, NV  LGT RAIN  57  47  69 SW12      30.09R
ELY            CLEAR     31  21  66 S7        30.21R WCI  24
ELKO           MOCLDY    41  30  65 CALM      30.13R
POCATELLO, ID  CLEAR     33  32  96 CALM      30.21S
BURLEY         CLEAR     39  33  79 E13       30.15S WCI  31
EVANSTON, WY   PTCLDY    38  28  67 E5        30.29S WCI  34
ROCK SPRINGS   PTCLDY    40  26  57 S13       30.29R WCI  32
KEMMERER       PTCLDY    34  28  80 N9        30.31S WCI  26

$$


USA.gov is the U.S. government's official web portal to all federal, state and local government web resources and services.